GW0385 Weather Reports


Display with metric or nautical units.
time (UTC)temp
F
wind
direction
speed
MPH
gust
MPH
rain 1hr
in
rain 24hr
in
rain mn
in
humidity
%
barometer
mb
20260504081905 48 208 1.0 8.0 0.00 0.00 0.00 77 1007.5
20260504081541 48 209 2.0 9.0 0.00 0.00 0.00 76 1007.6
20260504081405 49 203 4.0 8.0 0.00 0.00 0.00 76 1007.5
20260504081022 48 206 5.0 9.0 0.00 0.00 0.00 75 1007.6
20260504080904 49 207 4.0 8.0 0.00 0.00 0.00 75 1007.6
20260504080522 48 184 5.0 9.0 0.00 0.00 0.00 74 1007.7
20260504080405 49 180 3.0 7.0 0.00 0.00 0.00 74 1007.6
20260504070357 49 171 12.0 17.0 0.00 0.00 0.00 69 1007.6
20260504050522 49 166 8.0 12.0 0.00 0.00 0.00 62 1008.3
20260504050343 49 181 7.0 12.0 0.00 0.00 0.00 63 1008.0
20260504045840 49 191 9.0 12.0 0.00 0.00 0.00 61 1008.0
20260504045521 49 176 9.0 13.0 0.00 0.00 0.00 60 1008.2
20260504045339 49 168 8.0 13.0 0.00 0.00 0.00 61 1008.0
20260504045023 49 172 8.0 14.0 0.00 0.00 0.00 58 1008.2
20260504044836 50 191 9.0 13.0 0.00 0.00 0.00 59 1008.1
20260504044536 49 177 10.0 14.0 0.00 0.00 0.00 57 1008.4
20260504044338 49 181 10.0 13.0 0.00 0.00 0.00 58 1008.2
20260504044023 49 176 7.0 12.0 0.00 0.00 0.00 57 1008.4
20260504043852 49 187 7.0 11.0 0.00 0.00 0.00 56 1008.3
20260504043523 49 191 8.0 11.0 0.00 0.00 0.00 56 1008.3
20260504043335 50 193 8.0 11.0 0.00 0.00 0.00 57 1008.2
20260504043035 49 184 7.0 12.0 0.00 0.00 0.00 56 1008.3
20260504042835 50 197 8.0 11.0 0.00 0.00 0.00 57 1008.1
20260504042523 49 183 7.0 12.0 0.00 0.00 0.00 55 1008.3
20260504042334 49 176 9.0 11.0 0.00 0.00 0.00 54 1008.2
20260504042023 49 203 7.0 11.0 0.00 0.00 0.00 53 1008.3
20260504041833 50 222 8.0 11.0 0.00 0.00 0.00 54 1008.2
20260504041544 49 204 7.0 16.0 0.00 0.00 0.00 53 1008.3
20260504041333 50 211 7.0 14.0 0.00 0.00 0.00 52 1008.3
20260504041023 49 251 7.0 16.0 0.00 0.00 0.00 51 1008.3
20260504040522 49 295 8.0 15.0 0.00 0.00 0.00 50 1008.3
20260504040332 50 239 7.0 13.0 0.00 0.00 0.00 51 1008.2
20260504040042 49 242 7.0 13.0 0.00 0.00 0.00 51 1008.2
20260504035832 50 287 6.0 13.0 0.00 0.00 0.00 50 1008.2
20260504035522 49 275 6.0 15.0 0.00 0.00 0.00 49 1008.3
20260504035329 50 263 7.0 14.0 0.00 0.00 0.00 49 1008.2
20260504035023 50 245 5.0 16.0 0.00 0.00 0.00 48 1008.4
20260504034829 50 247 7.0 15.0 0.00 0.00 0.00 50 1008.2
20260504034545 50 204 8.0 16.0 0.00 0.00 0.00 48 1008.5
20260504034330 50 248 9.0 15.0 0.00 0.00 0.00 49 1008.4
20260504034022 50 249 6.0 12.0 0.00 0.00 0.00 48 1008.6
20260504033842 50 239 8.0 12.0 0.00 0.00 0.00 48 1008.5
20260504033525 50 247 7.0 14.0 0.00 0.00 0.00 47 1008.6
20260504033329 50 237 7.0 14.0 0.00 0.00 0.00 48 1008.4
20260504033036 49 241 9.0 18.0 0.00 0.00 0.00 47 1008.5
20260504032829 50 225 9.0 18.0 0.00 0.00 0.00 49 1008.3
20260504032525 49 254 10.0 18.0 0.00 0.00 0.00 48 1008.4
20260504032024 49 249 10.0 18.0 0.00 0.00 0.00 49 1008.3
20260504031536 48 218 11.0 18.0 0.00 0.00 0.00 50 1008.4
20260504031022 46 239 6.0 13.0 0.00 0.00 0.00 52 1008.3
20260504030830 47 258 6.0 9.0 0.00 0.00 0.00 52 1008.3
20260504030522 46 249 5.0 9.0 0.00 0.00 0.00 52 1008.4
20260504030330 47 234 5.0 8.0 0.00 0.00 0.00 53 1008.2
20260504030041 46 251 4.0 8.0 0.00 0.00 0.00 52 1008.4
20260504025829 46 256 5.0 8.0 0.00 0.00 0.00 53 1008.2
20260504025523 46 228 4.0 8.0 0.00 0.00 0.00 52 1008.3
20260504025330 46 251 3.0 6.0 0.00 0.00 0.00 54 1008.2
20260504025023 46 275 4.0 7.0 0.00 0.00 0.00 54 1008.2
20260504024829 46 239 4.0 7.0 0.00 0.00 0.00 53 1008.3
20260504024537 45 255 4.0 8.0 0.00 0.00 0.00 53 1008.3
20260504024329 45 256 5.0 8.0 0.00 0.00 0.00 53 1008.2
20260504024022 45 249 4.0 9.0 0.00 0.00 0.00 53 1008.3
20260504023522 44 261 4.0 9.0 0.00 0.00 0.00 55 1008.3
20260504023329 44 259 4.0 9.0 0.00 0.00 0.00 56 1008.1
20260504023034 43 278 4.0 9.0 0.00 0.00 0.00 57 1008.4
20260504022828 44 275 4.0 6.0 0.00 0.00 0.00 58 1008.3
20260504022522 43 255 3.0 6.0 0.00 0.00 0.00 58 1008.5
20260504022329 43 264 4.0 5.0 0.00 0.00 0.00 60 1008.4
20260504022022 43 253 2.0 4.0 0.00 0.00 0.00 59 1008.5
20260504021540 42 273 3.0 4.0 0.00 0.00 0.00 58 1008.6
20260504021331 42 266 3.0 4.0 0.00 0.00 0.00 60 1008.4
20260504021034 42 270 2.0 6.0 0.00 0.00 0.00 61 1008.6
20260504020831 42 270 3.0 6.0 0.00 0.00 0.00 62 1008.4
20260504020522 42 278 2.0 6.0 0.00 0.00 0.00 62 1008.6
20260504020332 42 272 3.0 6.0 0.00 0.00 0.00 62 1008.4
20260504020041 42 292 3.0 6.0 0.00 0.00 0.00 62 1008.6
20260504015523 42 273 2.0 4.0 0.00 0.00 0.00 62 1008.6
20260504015330 42 282 3.0 4.0 0.00 0.00 0.00 62 1008.5
20260504015022 42 285 2.0 4.0 0.00 0.00 0.00 62 1008.6
20260504014830 42 289 2.0 4.0 0.00 0.00 0.00 61 1008.5
20260504014538 42 299 1.0 4.0 0.00 0.00 0.00 61 1008.7
20260504014330 43 295 2.0 4.0 0.00 0.00 0.00 59 1008.6
20260504014021 43 297 2.0 4.0 0.00 0.00 0.00 59 1008.7
20260504013829 43 289 2.0 4.0 0.00 0.00 0.00 60 1008.6
20260504013521 43 289 1.0 4.0 0.00 0.00 0.00 58 1008.7
20260504013330 44 295 1.0 4.0 0.00 0.00 0.00 58 1008.5
20260504013049 43 309 2.0 7.0 0.00 0.00 0.00 57 1008.7
20260504012829 44 285 2.0 6.0 0.00 0.00 0.00 57 1008.6
20260504012522 43 265 3.0 7.0 0.00 0.00 0.00 56 1008.7
20260504012329 44 276 3.0 6.0 0.00 0.02 0.00 57 1008.5
20260504012023 43 280 3.0 7.0 0.00 0.00 0.00 57 1008.6
20260504011830 43 287 2.0 6.0 0.00 0.02 0.00 60 1008.3
20260504011535 43 272 2.0 6.0 0.00 0.00 0.00 58 1008.4
20260504011329 44 268 3.0 6.0 0.00 0.02 0.00 58 1008.2
20260504011022 42 264 3.0 6.0 0.00 0.00 0.00 59 1008.4
20260504010828 43 274 3.0 4.0 0.00 0.02 0.00 62 1008.2
20260504010522 42 286 1.0 3.0 0.00 0.00 0.00 63 1008.5
20260504010329 43 297 2.0 3.0 0.00 0.02 0.00 63 1008.4
20260504010042 43 256 1.0 3.0 0.00 0.00 0.00 59 1008.5
20260504005829 43 245 2.0 3.0 0.00 0.02 0.00 59 1008.4
20260504005522 43 258 1.0 3.0 0.00 0.00 0.00 60 1008.4
20260504005329 43 258 2.0 3.0 0.00 0.02 0.00 61 1008.4
20260504005022 43 295 1.0 3.0 0.00 0.00 0.00 60 1008.5
20260504004831 44 293 2.0 3.0 0.00 0.02 0.00 60 1008.4
20260504004534 44 289 1.0 4.0 0.00 0.00 0.00 59 1008.3
20260504004022 44 286 1.0 4.0 0.00 0.00 0.00 58 1008.4
20260504003833 44 298 2.0 4.0 0.00 0.02 0.00 59 1008.3
20260504003523 44 275 2.0 4.0 0.00 0.00 0.00 57 1008.3
20260504003333 45 247 3.0 4.0 0.00 0.02 0.00 57 1008.2
20260504003035 45 270 2.0 4.0 0.00 0.00 0.00 55 1008.3
20260504002830 45 270 2.0 4.0 0.00 0.02 0.00 56 1008.2
20260504002522 45 270 2.0 4.0 0.00 0.00 0.00 55 1008.2
20260504002022 46 287 2.0 4.0 0.00 0.00 0.00 54 1008.3
20260504001829 47 287 2.0 3.0 0.00 0.02 0.00 54 1008.0
20260504001538 47 287 2.0 3.0 0.00 0.00 0.00 50 1008.1
20260504001329 47 291 2.0 3.0 0.00 0.02 0.00 50 1008.0
20260504001022 47 295 1.0 3.0 0.00 0.00 0.00 49 1008.1
20260504000829 48 299 2.0 3.0 0.00 0.02 0.00 49 1008.0
20260504000526 48 321 1.0 3.0 0.00 0.00 0.00 47 1008.2
20260504000035 49 321 1.0 3.0 0.00 0.00 0.00 46 1008.2
20260503235826 49 321 1.0 3.0 0.00 0.02 0.00 45 1008.2
20260503235521 49 341 2.0 4.0 0.00 0.00 0.00 42 1008.3
20260503235326 50 324 2.0 4.0 0.00 0.02 0.00 41 1008.0
20260503235022 49 314 1.0 6.0 0.00 0.00 0.00 45 1008.1
20260503234535 50 305 2.0 6.0 0.00 0.00 0.00 40 1008.2
20260503234323 51 305 3.0 5.0 0.00 0.02 0.00 43 1008.0
20260503234023 51 287 2.0 6.0 0.00 0.00 0.00 40 1008.0
20260503233824 51 311 1.0 3.0 0.00 0.02 0.00 44 1007.9
20260503233522 51 346 1.0 7.0 0.00 0.00 0.00 39 1008.1
20260503233323 52 297 0.0 7.0 0.00 0.02 0.00 42 1007.8
20260503233037 52 297 0.0 7.0 0.00 0.00 0.00 38 1007.9
20260503232820 52 297 1.0 7.0 0.00 0.02 0.00 37 1007.7
20260503232523 52 297 3.0 7.0 0.00 0.00 0.00 37 1007.7
20260503232320 53 322 3.0 7.0 0.00 0.02 0.00 36 1007.6
20260503232022 53 307 2.0 7.0 0.00 0.00 0.00 36 1007.8
20260503231819 53 351 4.0 7.0 0.00 0.02 0.00 36 1007.6
20260503231536 53 202 3.0 10.0 0.00 0.00 0.00 37 1007.7
20260503231318 53 273 2.0 10.0 0.00 0.02 0.00 35 1007.6
20260503231022 53 278 2.0 13.0 0.00 0.00 0.00 35 1007.7
20260503230816 53 272 2.0 13.0 0.00 0.02 0.00 36 1007.6
20260503230604 53 302 6.0 13.0 0.00 0.00 0.00 34 1007.6
20260503230041 53 334 8.0 13.0 0.00 0.00 0.00 34 1007.6
20260503225814 54 344 7.0 13.0 0.00 0.02 0.00 34 1007.5
20260503225521 53 322 7.0 11.0 0.00 0.00 0.00 34 1007.5
20260503225312 54 288 8.0 11.0 0.00 0.02 0.00 35 1007.5
20260503225022 53 299 6.0 11.0 0.00 0.00 0.00 36 1007.8
20260503224813 54 280 5.0 10.0 0.00 0.02 0.00 36 1007.6
20260503224533 53 281 6.0 10.0 0.00 0.00 0.00 35 1007.7
20260503224312 54 275 6.0 9.0 0.00 0.02 0.00 36 1007.6
20260503224023 53 300 4.0 9.0 0.00 0.00 0.00 37 1007.7
20260503223813 53 323 4.0 9.0 0.00 0.02 0.00 37 1007.7
20260503223522 53 347 2.0 9.0 0.00 0.00 0.00 37 1007.8
20260503223313 53 316 4.0 9.0 0.00 0.02 0.00 36 1007.7
20260503223035 53 310 4.0 9.0 0.00 0.00 0.00 36 1007.8
20260503222522 53 316 4.0 9.0 0.00 0.00 0.00 37 1007.8
20260503222312 53 316 5.0 9.0 0.00 0.02 0.00 39 1007.7
20260503222022 53 328 3.0 6.0 0.00 0.00 0.00 38 1007.9
20260503221811 53 347 3.0 5.0 0.00 0.02 0.00 37 1007.8
20260503221542 53 201 0.0 10.0 0.00 0.00 0.00 37 1007.9
20260503221312 53 291 1.0 9.0 0.00 0.02 0.00 38 1007.9
20260503221022 53 312 3.0 12.0 0.00 0.00 0.00 38 1008.0
20260503220810 53 311 3.0 12.0 0.00 0.02 0.00 38 1007.8
20260503220524 53 282 7.0 14.0 0.00 0.00 0.00 36 1007.9
20260503220310 53 288 8.0 13.0 0.00 0.02 0.00 37 1007.9
20260503220039 53 275 8.0 14.0 0.00 0.00 0.00 36 1007.9
20260503215522 53 297 4.0 10.0 0.00 0.00 0.00 37 1007.8
20260503215310 54 238 5.0 14.0 0.00 0.02 0.00 37 1007.7
20260503215023 53 277 4.0 15.0 0.00 0.00 0.00 36 1007.7
20260503214812 54 279 4.0 14.0 0.00 0.02 0.00 37 1007.6
20260503214540 53 297 8.0 15.0 0.00 0.00 0.00 37 1007.7
20260503214306 54 331 8.0 12.0 0.00 0.02 0.00 37 1007.6
20260503214026 53 324 7.0 12.0 0.00 0.00 0.00 36 1007.7
20260503213522 53 302 2.0 11.0 0.00 0.00 0.00 37 1007.7
20260503213304 54 358 6.0 11.0 0.00 0.02 0.00 37 1007.4
20260503213042 53 296 4.0 10.0 0.00 0.00 0.00 36 1007.6
20260503212803 53 271 3.0 10.0 0.00 0.02 0.00 37 1007.6
20260503212525 53 342 3.0 13.0 0.00 0.00 0.00 35 1007.5
20260503212304 54 314 3.0 13.0 0.00 0.02 0.00 37 1007.5
20260503212022 53 275 4.0 16.0 0.00 0.00 0.00 37 1007.6
20260503211803 53 327 8.0 16.0 0.00 0.02 0.00 36 1007.5
20260503211535 53 341 8.0 16.0 0.00 0.00 0.00 36 1007.7
20260503211021 53 276 7.0 14.0 0.00 0.00 0.00 36 1007.6
20260503210802 53 310 6.0 14.0 0.00 0.02 0.00 37 1007.4
20260503210521 53 323 6.0 15.0 0.00 0.00 0.00 37 1007.5
20260503210303 54 324 7.0 15.0 0.00 0.02 0.00 37 1007.4
20260503210039 53 245 6.0 15.0 0.00 0.00 0.00 36 1007.5
20260503205804 53 279 11.0 15.0 0.00 0.02 0.00 37 1007.4
20260503205522 53 295 4.0 11.0 0.00 0.01 0.00 36 1007.4
20260503205304 54 347 4.0 9.0 0.00 0.02 0.00 37 1007.3
20260503205022 53 324 1.0 10.0 0.00 0.01 0.00 38 1007.6
20260503204541 53 297 4.0 10.0 0.00 0.01 0.00 37 1007.6
20260503204305 53 78 7.0 10.0 0.00 0.02 0.00 38 1007.4
20260503204021 53 317 5.0 10.0 0.00 0.01 0.00 36 1007.6
20260503203805 53 243 4.0 10.0 0.00 0.02 0.00 36 1007.5
20260503203526 53 282 4.0 12.0 0.00 0.01 0.00 36 1007.6
20260503203304 53 261 4.0 16.0 0.00 0.02 0.00 37 1007.5
20260503203041 53 269 7.0 19.0 0.00 0.01 0.00 35 1007.7
20260503202804 54 238 6.0 19.0 0.00 0.02 0.00 37 1007.6
20260503202523 53 249 11.0 19.0 0.00 0.01 0.00 36 1007.6
20260503202306 54 330 10.0 19.0 0.00 0.02 0.00 35 1007.6
20260503202022 53 324 7.0 13.0 0.00 0.01 0.00 36 1007.7
20260503201803 54 290 7.0 12.0 0.00 0.02 0.00 36 1007.7
20260503201538 53 262 6.0 14.0 0.00 0.01 0.00 36 1007.7
20260503201302 54 254 6.0 14.0 0.00 0.02 0.00 37 1007.7
20260503201022 54 282 6.0 14.0 0.00 0.01 0.00 37 1007.8
20260503200803 54 299 9.0 14.0 0.00 0.02 0.00 37 1007.7
20260503200522 53 287 6.0 13.0 0.00 0.01 0.00 40 1007.7
20260503200329 53 243 9.0 12.0 0.00 0.02 0.00 37 1007.7
20260503200036 52 257 7.0 12.0 0.00 0.01 0.00 38 1007.7
20260503195801 53 237 4.0 10.0 0.00 0.02 0.00 38 1007.8
20260503195522 52 270 6.0 13.0 0.00 0.02 0.00 38 1007.9
20260503195304 53 305 5.0 11.0 0.00 0.02 0.00 39 1007.8
20260503195022 52 252 6.0 13.0 0.00 0.02 0.00 39 1008.0
20260503194802 53 270 7.0 11.0 0.00 0.02 0.00 40 1008.0
20260503194540 52 315 2.0 7.0 0.00 0.02 0.00 40 1008.1
20260503194303 52 312 2.0 6.0 0.00 0.02 0.00 43 1008.0
20260503194023 51 280 2.0 8.0 0.00 0.02 0.00 40 1008.1
20260503193801 52 242 3.0 8.0 0.00 0.02 0.00 42 1008.0
20260503193523 51 11 4.0 8.0 0.00 0.02 0.00 40 1008.1
20260503193321 51 26 4.0 8.0 0.00 0.02 0.00 43 1008.0
20260503193043 51 330 4.0 8.0 0.00 0.02 0.00 42 1008.1
20260503192804 51 12 3.0 8.0 0.00 0.02 0.00 42 1008.1
20260503192521 51 4 4.0 10.0 0.00 0.02 0.00 42 1008.2
20260503192305 52 10 6.0 10.0 0.00 0.02 0.00 42 1008.1
20260503192021 51 358 3.0 11.0 0.00 0.02 0.00 41 1008.3
20260503191805 51 330 7.0 10.0 0.00 0.02 0.00 40 1008.2
20260503191603 51 312 6.0 11.0 0.00 0.02 0.00 41 1008.3
20260503191304 51 330 1.0 11.0 0.00 0.02 0.00 42 1008.3
20260503191021 51 287 4.0 14.0 0.00 0.02 0.00 41 1008.3
20260503190804 51 335 3.0 13.0 0.00 0.02 0.00 42 1008.3
20260503190525 51 282 6.0 14.0 0.00 0.02 0.00 43 1008.5
20260503190317 51 302 8.0 13.0 0.00 0.02 0.00 41 1008.3
20260503190039 51 297 7.0 12.0 0.00 0.02 0.00 41 1008.4
20260503185805 51 320 10.0 12.0 0.00 0.02 0.00 42 1008.4
20260503185525 51 314 6.0 19.0 0.00 0.02 0.00 42 1008.5
20260503185305 51 278 5.0 19.0 0.00 0.02 0.00 41 1008.4
20260503185021 51 266 7.0 19.0 0.00 0.02 0.00 42 1008.6
20260503184805 51 266 11.0 19.0 0.00 0.02 0.00 41 1008.4
20260503184537 51 266 9.0 15.0 0.00 0.02 0.00 40 1008.7
20260503184305 51 248 5.0 12.0 0.00 0.02 0.00 41 1008.4
20260503184022 51 275 6.0 13.0 0.00 0.02 0.00 39 1008.6
20260503183800 52 239 5.0 12.0 0.00 0.02 0.00 43 1008.5
20260503183525 51 322 4.0 15.0 0.00 0.02 0.00 42 1008.5
20260503183035 51 235 7.0 20.0 0.00 0.02 0.00 43 1008.6
20260503182758 51 287 9.0 19.0 0.00 0.02 0.00 41 1008.5
20260503182521 50 318 12.0 20.0 0.00 0.02 0.00 42 1008.8
20260503182300 51 335 6.0 19.0 0.00 0.02 0.00 42 1008.7
20260503182021 50 273 5.0 15.0 0.00 0.02 0.00 43 1008.9
20260503181801 51 339 9.0 15.0 0.00 0.02 0.00 45 1008.9
20260503181546 50 317 9.0 15.0 0.00 0.02 0.00 43 1008.9
20260503181256 51 321 5.0 13.0 0.00 0.02 0.00 46 1008.7
20260503181022 50 335 5.0 13.0 0.00 0.02 0.00 43 1009.0
20260503180756 51 276 9.0 13.0 0.00 0.02 0.00 45 1008.7
20260503180522 50 339 9.0 13.0 0.00 0.02 0.00 43 1008.8
20260503180258 51 330 6.0 12.0 0.00 0.02 0.00 43 1008.8
20260503180033 50 286 6.0 15.0 0.00 0.02 0.00 43 1008.9
20260503175521 50 258 6.0 15.0 0.00 0.02 0.00 44 1008.9
20260503175251 51 312 7.0 15.0 0.00 0.02 0.00 44 1008.8
20260503175021 50 307 6.0 15.0 0.00 0.02 0.00 47 1008.9
20260503174749 51 326 7.0 15.0 0.00 0.02 0.00 44 1008.8
20260503174544 50 292 10.0 15.0 0.00 0.02 0.00 45 1008.9
20260503174246 51 343 9.0 14.0 0.00 0.02 0.00 45 1008.8
20260503174022 50 291 6.0 14.0 0.00 0.02 0.00 45 1009.0
20260503173521 50 328 7.0 13.0 0.00 0.02 0.00 45 1009.1
20260503173245 50 320 5.0 11.0 0.00 0.02 0.00 46 1009.0
20260503173038 49 268 7.0 13.0 0.00 0.02 0.00 46 1009.1
20260503172742 50 330 9.0 12.0 0.00 0.02 0.00 46 1008.9
20260503172521 50 318 7.0 13.0 0.00 0.02 0.00 46 1009.1
20260503172243 50 255 7.0 12.0 0.00 0.02 0.00 44 1009.1
20260503172022 50 255 5.0 15.0 0.00 0.02 0.00 43 1009.1
20260503171741 50 275 4.0 13.0 0.00 0.02 0.00 44 1009.0
20260503171536 49 307 4.0 15.0 0.00 0.02 0.00 45 1009.1
20260503171240 50 270 9.0 13.0 0.00 0.02 0.00 43 1009.0
20260503171022 49 272 8.0 16.0 0.00 0.02 0.00 43 1009.1
20260503170524 49 8 9.0 16.0 0.00 0.02 0.00 44 1009.1
20260503170239 49 318 9.0 15.0 0.00 0.02 0.00 45 1009.0
20260503150735 49 322 8.0 12.0 0.00 0.02 0.00 46 1009.9
20260503150521 48 26 7.0 11.0 0.00 0.02 0.00 46 1009.9
20260503150231 49 280 4.0 11.0 0.00 0.02 0.00 47 1009.8
20260503140229 49 332 8.0 15.0 0.00 0.02 0.00 50 1010.0
20260503131230 44 45 5.0 12.0 0.00 0.02 0.00 79 1010.4
20260503131022 44 36 7.0 13.0 0.00 0.02 0.00 79 1010.6
20260503130727 44 58 9.0 12.0 0.00 0.02 0.00 78 1010.4
20260503130522 44 52 8.0 13.0 0.00 0.02 0.00 77 1010.5
20260503130227 44 31 4.0 12.0 0.00 0.02 0.00 78 1010.4
20260503120212 43 45 3.0 4.0 0.00 0.02 0.00 82 1010.5
20260503110706 42 291 2.0 2.0 0.00 0.03 0.00 89 1010.6
20260503110523 41 291 1.0 2.0 0.00 0.03 0.00 89 1010.7
20260503100146 40 291 1.0 2.0 0.00 0.03 0.00 88 1010.3
20260503090130 41 312 2.0 3.0 0.00 0.03 0.00 86 1010.3